Regional Weather Roundup
Issued by NWS Charleston, SC

Current Version | Previous Version | Graphics & Text | Print | Product List | Glossary On
Versions: 1 2 3 4 5 6 7 8 9 10 11 12 13 14 15 16 17 18 19 20 21 22 23 24 25 26 27 28 29 30 31 32 33 34 35 36 37 38 39 40 41 42 43 44 45 46 47 48 49 50
000 ASUS42 KCHS 271628 RWRCHS REGIONAL WEATHER ROUNDUP NATIONAL WEATHER SERVICE CHARLESTON SC 1200 PM EDT WED JUL 27 2016 NOTE: "FAIR" INDICATES FEW OR NO CLOUDS BELOW 12,000 FEET WITH NO SIGNIFICANT WEATHER AND/OR OBSTRUCTIONS TO VISIBILITY. NOT ALL STATIONS ARE QUALITY CONTROLLED. USE DATA WITH CAUTION... ESPECIALLY DEWPOINT OBSERVATIONS. SCZ027-030-031-034>040-042>050-271700- ...SOUTHEAST SOUTH CAROLINA... CITY SKY/WX TMP DP RH WIND PRES REMARKS N CHARLESTON MOSUNNY 91 74 57 W8 30.04F HX 100 WATERFRONT PRK N/A 88 75 65 W5 30.03S HX 97 MOUNT PLEASANT FAIR 91 75 59 SW8 30.04F HX 102 JOHNS ISLAND FAIR 91 75 59 W8 30.05S HX 102 PINOPOLIS N/A 88 75 66 VRB3 29.97S HX 97 MONCKS CORNER FAIR 88 70 55 SW8 30.04F HX 92 SUMMERVILLE FAIR 91 73 55 W7 30.05F HX 100 BEAUFORT MCAS MOSUNNY 93 72 50 W10 30.06S HX 101 BEAUFORT ARPT FAIR 90 73 58 W9 30.06S HX 98 HILTON HEAD IS MOSUNNY 95 73 49 W6 30.07F HX 105 WALTERBORO SUNNY 91 72 52 SW8 30.06S HX 98 ALLENDALE FAIR 90 73 58 VRB6G13 30.05F HX 98 ...SOUTHERN MIDLANDS AND PEE DEE... CITY SKY/WX TMP DP RH WIND PRES REMARKS GEORGETOWN FAIR 90 73 58 W6 30.04S HX 98 KINGSTREE FAIR 91 72 52 W7 30.03S HX 98 ORANGEBURG SUNNY 91 73 55 SW9 30.05S HX 99 BARNWELL NOT AVBL AIKEN FAIR 90 72 55 SW3G9 30.09S HX 96 MANNING FAIR 90 72 55 SW7 30.04S HX 96 COLUMBIA MOSUNNY 94 72 48 VRB6 30.02F HX 102 SUMTER SUNNY 91 74 56 SW5 30.01F HX 100 FLORENCE SUNNY 93 74 53 W10 30.02S HX 103 MYRTLE BEACH SUNNY 93 72 49 W9 30.04R HX 100 N MYRTLE BEACH SUNNY 93 74 53 VRB7 30.01S HX 103 $$ GAZ063-065-086>088-099>101-113>116-118-119-134>141-150-271700- ...SOUTHEAST GEORGIA... CITY SKY/WX TMP DP RH WIND PRES REMARKS SAVANNAH ARPT PTSUNNY 92 72 51 W12 30.08R HX 99 HUNTER AAF MOSUNNY 91 76 62 W10 30.05S HX 102 FORT STEWART SUNNY 91 72 53 W10 30.06S HX 98 STATESBORO PTSUNNY 90 76 62 W10 30.08S HX 101 SYLVANIA NOT AVBL CLAXTON FAIR 91 74 57 SW6G17 30.08S HX 99 ...CSRA...CENTRAL AND FAR SOUTHEAST GEORGIA... CITY SKY/WX TMP DP RH WIND PRES REMARKS THOMSON NOT AVBL AUGUSTA-BUSH MOSUNNY 92 71 50 NW6 30.04F HX 98 AUGUSTA-DANIEL MOSUNNY 91 72 53 VRB3 30.07S HX 98 SWAINSBORO FAIR 90 70 51 SW8 30.09S HX 95 VIDALIA PTSUNNY 91 70 49 W8 30.09S HX 97 EASTMAN PTSUNNY 88 61 39 W5 30.12S HAZLEHURST FAIR 91 74 56 CALM 30.09S HX 100 ALMA MOSUNNY 91 71 51 SW9 30.09S HX 97 WAYCROSS MOSUNNY 95 74 51 W9 30.10S HX 106 JESUP FAIR 91 77 62 W8 30.09F HX 105 BAXLEY FAIR 91 75 59 SW6 30.09S HX 102 BRUNSWICK MOSUNNY 91 73 55 W6 30.09F HX 100 SAINT SIMONS SUNNY 92 71 50 SW8 30.09S HX 98 $$ SCZ027-028-034-036>038-045-046-048>050-GAZ119-141-271700- ...LAKE AND SUPPLEMENTAL COASTAL OBSERVATIONS... STATION/POSITION TIME TEMP WIND PRES WAVE SWELL AIR SEA DIR/SP/G HT/PER HT/PER/DIR (UTC) (F) (DEG/KT/KT) (MB) (FT/S) (FT/S/D) WINYAH BAY 1545 90 270/ 7 1016.0S LAKE MURRAY 1500 86 190/ 8/ 10 1016.3S ACE BASIN NERRS 1500 88 290/ 3 1018.0S FORT PULASKI 1600 89 87 240/ 7/ 11 1018.7S SAPELO ISLAND 1600 90 240/ 6 1019.0S $$ ANZ835-935-AMZ111-154-330-350-352-354-370-450-454-472-271700- ...C-MAN AND BUOY OBSERVATIONS... STATION/POSITION TIME TEMP WIND PRES WAVE SWELL AIR SEA DIR/SP/G HT/PER HT/PER/DIR (UTC) (F) (DEG/KT/KT) (MB) (FT/S) (FT/S/D) BUOY 41004 1550 84 86 250/ 12/ 14 1017.5R 3/ 5 2/210/ 6 BUOY 41008 1550 84 87 240/ 8/ 10 1018.8S 2/ 5 2/160/ 5 FOLLY BEACH CMAN 1600 89 210/ 10/ 11 1017.8R CAPERS NEARSHORE 1608 85 84 220/ 10/ 12 1017.4S FRIPP NEARSHORE 1608 86 87 250/ 10/ 12 1017.4F STATION/POSITION TIME TEMP WIND PRES WAVE SWELL AIR SEA DIR/SP/G HT/PER HT/PER/DIR (UTC) (F) (DEG/KT/KT) (MB) (FT/S) (FT/S/D) 5E ST. MARYS GA 1601 87 N/A 1/ 8 FRYING PAN BUOY 1600 84 85 250/ 12/ 16 1016.5S BUOY 41025 1550 83 84 250/ 10/ 12 1015.0R 4/ 5 3/220/ 5 CAPE LOOKOUT NC 1600 85 250/ 12/ 14 1015.0F BUOY 41002 1550 85 84 270/ 12/ 16 1017.7R 4/ 5 2/130/ 8 BUOY 41010 1520 85 86 230/ 6/ 8 1019.8R ST AUGUSTINE FL 1600 84 85 40/ 7/ 7 1020.7R $$

USA.gov is the U.S. government's official web portal to all federal, state and local government web resources and services.